CDT,Max TemperatureF,Mean TemperatureF,Min TemperatureF,Max Dew PointF,MeanDew PointF,Min DewpointF,Max Humidity, Mean Humidity, Min Humidity, Max Sea Level PressureIn, Mean Sea Level PressureIn, Min Sea Level PressureIn, Max VisibilityMiles, Mean VisibilityMiles, Min VisibilityMiles, Max Wind SpeedMPH, Mean Wind SpeedMPH, Max Gust SpeedMPH,PrecipitationIn, CloudCover, Events, WindDirDegrees
2013-6-1,75,67,60,68,62,58,100,81,64,29.83,29.77,29.72,10,10,7,22,10,29,0.05,5,Rain-Thunderstorm,204
2013-6-2,62,52,42,60,48,39,99,84,66,30.05,29.92,29.75,10,10,7,20,11,25,0.00,6,,325
2013-6-3,63,51,39,46,41,38,99,68,46,30.13,30.09,30.05,10,10,10,10,3,,0.00,1,,8
2013-6-4,73,64,54,49,44,40,80,49,31,30.19,30.14,30.11,10,10,10,13,7,10,0.00,0,,98
2013-6-5,77,65,54,50,45,41,84,49,32,30.13,30.03,29.94,10,10,10,12,6,17,0.00,3,,100
2013-6-6,69,60,52,55,48,40,88,64,45,29.94,29.90,29.87,10,10,10,14,10,17,0.01,5,Rain,35
2013-6-7,68,60,50,54,48,39,91,66,46,29.94,29.91,29.89,10,10,10,18,8,22,0.00,2,,11
2013-6-8,74,61,48,51,47,41,91,60,39,30.03,29.98,29.92,10,10,10,17,3,25,0.00,3,,21
2013-6-9,80,68,56,65,55,47,98,63,35,30.03,29.96,29.86,10,9,5,14,4,18,0.02,5,Rain-Thunderstorm,135
2013-6-10,75,67,60,66,63,60,100,90,67,29.89,29.81,29.77,10,7,1,16,6,25,0.90,7,Rain-Thunderstorm,307
2013-6-11,82,69,57,66,61,57,100,78,48,29.96,29.91,29.86,10,7,0,16,2,24,0.00,3,Fog-Rain-Thunderstorm,247
2013-6-12,86,74,63,73,68,63,100,86,56,29.93,29.81,29.63,10,8,1,17,2,48,0.53,2,Rain-Thunderstorm,169
2013-6-13,69,61,54,64,56,50,100,81,58,30.04,29.88,29.59,10,9,1,22,12,29,0.04,2,Rain,346
2013-6-14,73,62,52,59,54,51,97,77,57,30.13,30.07,30.01,10,10,10,13,7,22,0.00,1,,356
2013-6-15,71,64,56,65,61,55,99,84,66,30.10,30.02,29.92,10,10,7,13,3,17,0.02,4,Rain,184
2013-6-16,79,72,65,67,64,62,96,77,56,29.95,29.92,29.89,10,10,10,20,9,30,0.00,3,Rain-Thunderstorm,251
2013-6-17,84,72,59,68,58,49,100,65,30,29.96,29.93,29.88,10,8,0,14,2,20,0.02,2,Fog-Rain,252
2013-6-18,73,66,59,61,57,48,97,77,58,30.07,29.99,29.91,10,10,10,18,7,25,0.02,3,Rain,6
2013-6-19,75,64,52,50,46,42,77,54,31,30.17,30.13,30.07,10,10,10,10,5,,0.00,1,,65
2013-6-20,83,68,54,64,56,47,87,62,39,30.20,30.16,30.12,10,10,10,8,2,,0.00,2,,136
2013-6-21,85,74,62,67,63,60,96,76,43,30.19,30.13,29.99,10,9,4,21,4,32,0.22,1,Rain-Thunderstorm,198
2013-6-22,83,74,67,72,67,63,93,80,61,30.11,30.06,30.00,10,9,5,10,6,,0.00,2,,221
2013-6-23,85,74,63,69,65,63,100,75,52,30.09,30.05,29.99,10,9,4,15,5,20,0.00,1,,206
2013-6-24,83,74,65,70,66,62,100,82,53,30.11,30.04,29.96,10,9,2,15,6,22,0.00,1,,210
2013-6-25,86,76,66,74,69,61,100,86,60,30.00,29.93,29.83,10,9,2,29,6,43,0.28,4,Rain-Thunderstorm,213
2013-6-26,79,71,63,72,68,63,100,91,69,29.91,29.82,29.75,10,9,1,15,5,22,2.58,6,Rain-Thunderstorm,175
2013-6-27,86,76,65,70,66,62,100,80,51,29.81,29.76,29.70,10,9,0,14,4,23,0.00,3,Fog-Rain-Thunderstorm,316
2013-6-28,78,71,64,65,62,58,97,74,50,29.71,29.66,29.61,10,10,10,17,6,23,0.00,2,Rain-Thunderstorm,306
2013-6-29,71,66,61,65,63,61,100,94,70,29.75,29.65,29.59,10,9,0,16,5,17,0.50,6,Rain-Thunderstorm,349
2013-6-30,73,66,61,64,60,55,100,80,62,29.97,29.87,29.75,10,9,5,18,7,28,0.00,7,Rain,19